Year,Month,Day,Hour,Minute,Value (Times are PST for temperature in C)
2013,03,30,00,00,7.50
2013,03,30,00,01,7.50
2013,03,30,00,02,7.50
2013,03,30,00,03,7.40
2013,03,30,00,04,7.40
2013,03,30,00,05,7.40
2013,03,30,00,06,7.40
2013,03,30,00,07,7.40
2013,03,30,00,08,7.40
2013,03,30,00,09,7.40
2013,03,30,00,10,7.30
2013,03,30,00,11,7.30
2013,03,30,00,12,7.30
2013,03,30,00,13,7.30
2013,03,30,00,14,7.30
2013,03,30,00,15,7.30
2013,03,30,00,16,7.30
2013,03,30,00,17,7.30
2013,03,30,00,18,7.30
2013,03,30,00,19,7.30
2013,03,30,00,20,7.30
2013,03,30,00,21,7.30
2013,03,30,00,22,7.20
2013,03,30,00,23,7.20
2013,03,30,00,24,7.20
2013,03,30,00,25,7.20
2013,03,30,00,26,7.20
2013,03,30,00,27,7.20
2013,03,30,00,28,7.20
2013,03,30,00,29,7.20
2013,03,30,00,30,7.20
2013,03,30,00,31,7.20
2013,03,30,00,32,7.20
2013,03,30,00,33,7.20
2013,03,30,00,34,7.30
2013,03,30,00,35,7.30
2013,03,30,00,36,7.40
2013,03,30,00,37,7.40
2013,03,30,00,38,7.40
2013,03,30,00,39,7.40
2013,03,30,00,40,7.40
2013,03,30,00,41,7.40
2013,03,30,00,42,7.40
2013,03,30,00,43,7.40
2013,03,30,00,44,7.30
2013,03,30,00,45,7.30
2013,03,30,00,46,7.30
2013,03,30,00,47,7.30
2013,03,30,00,48,7.30
2013,03,30,00,49,7.40
2013,03,30,00,50,7.40
2013,03,30,00,51,7.40
2013,03,30,00,52,7.40
2013,03,30,00,53,7.40
2013,03,30,00,54,7.40
2013,03,30,00,55,7.40
2013,03,30,00,56,7.40
2013,03,30,00,57,7.40
2013,03,30,00,58,7.30
2013,03,30,00,59,7.30
2013,03,30,01,00,7.30
2013,03,30,01,01,7.30
2013,03,30,01,02,7.20
2013,03,30,01,03,7.10
2013,03,30,01,04,7.10
2013,03,30,01,05,7.00
2013,03,30,01,06,6.90
2013,03,30,01,07,6.80
2013,03,30,01,08,6.80
2013,03,30,01,09,6.70
2013,03,30,01,10,6.70
2013,03,30,01,11,6.70
2013,03,30,01,12,6.60
2013,03,30,01,13,6.60
2013,03,30,01,14,6.60
2013,03,30,01,15,6.60
2013,03,30,01,16,6.50
2013,03,30,01,17,6.50
2013,03,30,01,18,6.50
2013,03,30,01,19,6.50
2013,03,30,01,20,6.50
2013,03,30,01,21,6.50
2013,03,30,01,22,6.50
2013,03,30,01,23,6.50
2013,03,30,01,24,6.60
2013,03,30,01,25,6.60
2013,03,30,01,26,6.70
2013,03,30,01,27,6.70
2013,03,30,01,28,6.70
2013,03,30,01,29,6.70
2013,03,30,01,30,6.70
2013,03,30,01,31,6.70
2013,03,30,01,32,6.70
2013,03,30,01,33,6.70
2013,03,30,01,34,6.80
2013,03,30,01,35,6.80
2013,03,30,01,36,6.80
2013,03,30,01,37,6.90
2013,03,30,01,38,6.90
2013,03,30,01,39,6.90
2013,03,30,01,40,6.90
2013,03,30,01,41,6.90
2013,03,30,01,42,6.90
2013,03,30,01,43,6.90
2013,03,30,01,44,6.90
2013,03,30,01,45,6.90
2013,03,30,01,46,6.90
2013,03,30,01,47,6.90
2013,03,30,01,48,7.00
2013,03,30,01,49,7.00
2013,03,30,01,50,7.00
2013,03,30,01,51,7.00
2013,03,30,01,52,7.10
2013,03,30,01,53,7.10
2013,03,30,01,54,7.10
2013,03,30,01,55,7.10
2013,03,30,01,56,7.10
2013,03,30,01,57,7.10
2013,03,30,01,58,7.10
2013,03,30,01,59,7.10
2013,03,30,02,00,7.10
2013,03,30,02,01,7.20
2013,03,30,02,02,7.10
2013,03,30,02,03,7.10
2013,03,30,02,04,7.10
2013,03,30,02,05,7.10
2013,03,30,02,06,7.10
2013,03,30,02,07,7.10
2013,03,30,02,08,7.20
2013,03,30,02,09,7.20
2013,03,30,02,10,7.20
2013,03,30,02,11,7.10
2013,03,30,02,12,7.10
2013,03,30,02,13,7.10
2013,03,30,02,14,7.10
2013,03,30,02,15,7.10
2013,03,30,02,16,7.10
2013,03,30,02,17,7.10
2013,03,30,02,18,7.10
2013,03,30,02,19,7.10
2013,03,30,02,20,7.10
2013,03,30,02,21,7.10
2013,03,30,02,22,7.20
2013,03,30,02,23,7.20
2013,03,30,02,24,7.20
2013,03,30,02,25,7.20
2013,03,30,02,26,7.20
2013,03,30,02,27,7.20
2013,03,30,02,28,7.10
2013,03,30,02,29,7.10
2013,03,30,02,30,7.10
2013,03,30,02,31,7.00
2013,03,30,02,32,6.90
2013,03,30,02,33,6.90
2013,03,30,02,34,6.90
2013,03,30,02,35,6.80
2013,03,30,02,36,6.80
2013,03,30,02,37,6.80
2013,03,30,02,38,6.80
2013,03,30,02,39,6.80
2013,03,30,02,40,6.80
2013,03,30,02,41,6.80
2013,03,30,02,42,6.80
2013,03,30,02,43,6.70
2013,03,30,02,44,6.70
2013,03,30,02,45,6.70
2013,03,30,02,46,6.70
2013,03,30,02,47,6.80
2013,03,30,02,48,6.80
2013,03,30,02,49,6.80
2013,03,30,02,50,6.90
2013,03,30,02,51,6.90
2013,03,30,02,52,6.90
2013,03,30,02,53,7.00
2013,03,30,02,54,7.00
2013,03,30,02,55,7.10
2013,03,30,02,56,7.10
2013,03,30,02,57,7.10
2013,03,30,02,58,7.20
2013,03,30,02,59,7.20
2013,03,30,03,00,7.20
2013,03,30,03,01,7.20
2013,03,30,03,02,7.20
2013,03,30,03,03,7.20
2013,03,30,03,04,7.20
2013,03,30,03,05,7.20
2013,03,30,03,06,7.20
2013,03,30,03,07,7.20
2013,03,30,03,08,7.10
2013,03,30,03,09,7.00
2013,03,30,03,10,6.90
2013,03,30,03,11,6.80
2013,03,30,03,12,6.80
2013,03,30,03,13,6.80
2013,03,30,03,14,6.70
2013,03,30,03,15,6.70
2013,03,30,03,16,6.60
2013,03,30,03,17,6.50
2013,03,30,03,18,6.50
2013,03,30,03,19,6.40
2013,03,30,03,20,6.40
2013,03,30,03,21,6.40
2013,03,30,03,22,6.30
2013,03,30,03,23,6.30
2013,03,30,03,24,6.30
2013,03,30,03,25,6.30
2013,03,30,03,26,6.30
2013,03,30,03,27,6.30
2013,03,30,03,28,6.30
2013,03,30,03,29,6.30
2013,03,30,03,30,6.30
2013,03,30,03,31,6.20
2013,03,30,03,32,6.20
2013,03,30,03,33,6.20
2013,03,30,03,34,6.20
2013,03,30,03,35,6.20
2013,03,30,03,36,6.20
2013,03,30,03,37,6.20
2013,03,30,03,38,6.20
2013,03,30,03,39,6.20
2013,03,30,03,40,6.20
2013,03,30,03,41,6.20
2013,03,30,03,42,6.20
2013,03,30,03,43,6.20
2013,03,30,03,44,6.20
2013,03,30,03,45,6.20
2013,03,30,03,46,6.20
2013,03,30,03,47,6.20
2013,03,30,03,48,6.30
2013,03,30,03,49,6.30
2013,03,30,03,50,6.30
2013,03,30,03,51,6.30
2013,03,30,03,52,6.30
2013,03,30,03,53,6.30
2013,03,30,03,54,6.30
2013,03,30,03,55,6.30
2013,03,30,03,56,6.30
2013,03,30,03,57,6.30
2013,03,30,03,58,6.30
2013,03,30,03,59,6.30
2013,03,30,04,00,6.30
2013,03,30,04,01,6.30
2013,03,30,04,02,6.30
2013,03,30,04,03,6.30
2013,03,30,04,04,6.30
2013,03,30,04,05,6.30
2013,03,30,04,06,6.30
2013,03,30,04,07,6.30
2013,03,30,04,08,6.30
2013,03,30,04,09,6.30
2013,03,30,04,10,6.30
2013,03,30,04,11,6.30
2013,03,30,04,12,6.30
2013,03,30,04,13,6.40
2013,03,30,04,14,6.40
2013,03,30,04,15,6.40
2013,03,30,04,16,6.40
2013,03,30,04,17,6.50
2013,03,30,04,18,6.50
2013,03,30,04,19,6.60
2013,03,30,04,20,6.60
2013,03,30,04,21,6.60
2013,03,30,04,22,6.60
2013,03,30,04,23,6.60
2013,03,30,04,24,6.60
2013,03,30,04,25,6.60
2013,03,30,04,26,6.60
2013,03,30,04,27,6.70
2013,03,30,04,28,6.70
2013,03,30,04,29,6.70
2013,03,30,04,30,6.70
2013,03,30,04,31,6.70
2013,03,30,04,32,6.70
2013,03,30,04,33,6.70
2013,03,30,04,34,6.60
2013,03,30,04,35,6.50
2013,03,30,04,36,6.40
2013,03,30,04,37,6.30
2013,03,30,04,38,6.30
2013,03,30,04,39,6.20
2013,03,30,04,40,6.10
2013,03,30,04,41,6.00
2013,03,30,04,42,5.90
2013,03,30,04,43,5.90
2013,03,30,04,44,5.80
2013,03,30,04,45,5.80
2013,03,30,04,46,5.80
2013,03,30,04,47,5.70
2013,03,30,04,48,5.70
2013,03,30,04,49,5.70
2013,03,30,04,50,5.70
2013,03,30,04,51,5.70
2013,03,30,04,52,5.70
2013,03,30,04,53,5.60
2013,03,30,04,54,5.70
2013,03,30,04,55,5.70
2013,03,30,04,56,5.70
2013,03,30,04,57,5.70
2013,03,30,04,58,5.70
2013,03,30,04,59,5.60
2013,03,30,05,00,5.60
2013,03,30,05,01,5.50
2013,03,30,05,02,5.50
2013,03,30,05,03,5.50
2013,03,30,05,04,5.50
2013,03,30,05,05,5.50
2013,03,30,05,06,5.40
2013,03,30,05,07,5.40
2013,03,30,05,08,5.40
2013,03,30,05,09,5.30
2013,03,30,05,10,5.30
2013,03,30,05,11,5.30
2013,03,30,05,12,5.20
2013,03,30,05,13,5.20
2013,03,30,05,14,5.20
2013,03,30,05,15,5.20
2013,03,30,05,16,5.20
2013,03,30,05,17,5.10
2013,03,30,05,18,5.10
2013,03,30,05,19,5.10
2013,03,30,05,20,5.00
2013,03,30,05,21,5.00
2013,03,30,05,22,5.10
2013,03,30,05,23,5.10
2013,03,30,05,24,5.10
2013,03,30,05,25,5.10
2013,03,30,05,26,5.10
2013,03,30,05,27,5.10
2013,03,30,05,28,5.20
2013,03,30,05,29,5.20
2013,03,30,05,30,5.20
2013,03,30,05,31,5.20
2013,03,30,05,32,5.20
2013,03,30,05,33,5.30
2013,03,30,05,34,5.30
2013,03,30,05,35,5.30
2013,03,30,05,36,5.40
2013,03,30,05,37,5.40
2013,03,30,05,38,5.40
2013,03,30,05,39,5.40
2013,03,30,05,40,5.40
2013,03,30,05,41,5.40
2013,03,30,05,42,5.40
2013,03,30,05,43,5.40
2013,03,30,05,44,5.40
2013,03,30,05,45,5.30
2013,03,30,05,46,5.30
2013,03,30,05,47,5.30
2013,03,30,05,48,5.30
2013,03,30,05,49,5.30
2013,03,30,05,50,5.30
2013,03,30,05,51,5.30
2013,03,30,05,52,5.30
2013,03,30,05,53,5.30
2013,03,30,05,54,5.30
2013,03,30,05,55,5.30
2013,03,30,05,56,5.30
2013,03,30,05,57,5.40
2013,03,30,05,58,5.30
2013,03,30,05,59,5.30
2013,03,30,06,00,5.30
2013,03,30,06,01,5.30
2013,03,30,06,02,5.30
2013,03,30,06,03,5.30
2013,03,30,06,04,5.30
2013,03,30,06,05,5.30
2013,03,30,06,06,5.30
2013,03,30,06,07,5.30
2013,03,30,06,08,5.30
2013,03,30,06,09,5.40
2013,03,30,06,10,5.40
2013,03,30,06,11,5.40
2013,03,30,06,12,5.40
2013,03,30,06,13,5.50
2013,03,30,06,14,5.50
2013,03,30,06,15,5.50
2013,03,30,06,16,5.50
2013,03,30,06,17,5.50
2013,03,30,06,18,5.50
2013,03,30,06,19,5.50
2013,03,30,06,20,5.40
2013,03,30,06,21,5.40
2013,03,30,06,22,5.40
2013,03,30,06,23,5.40
2013,03,30,06,24,5.40
2013,03,30,06,25,5.40
2013,03,30,06,26,5.40
2013,03,30,06,27,5.40
2013,03,30,06,28,5.40
2013,03,30,06,29,5.50
2013,03,30,06,30,5.50
2013,03,30,06,31,5.50
2013,03,30,06,32,5.50
2013,03,30,06,33,5.60
2013,03,30,06,34,5.70
2013,03,30,06,35,5.70
2013,03,30,06,36,5.80
2013,03,30,06,37,5.80
2013,03,30,06,38,5.80
2013,03,30,06,39,5.80
2013,03,30,06,40,5.80
2013,03,30,06,41,5.80
2013,03,30,06,42,5.90
2013,03,30,06,43,5.80
2013,03,30,06,44,5.80
2013,03,30,06,45,5.80
2013,03,30,06,46,5.80
2013,03,30,06,47,5.80
2013,03,30,06,48,5.80
2013,03,30,06,49,5.70
2013,03,30,06,50,5.70
2013,03,30,06,51,5.60
2013,03,30,06,52,5.60
2013,03,30,06,53,5.50
2013,03,30,06,54,5.50
2013,03,30,06,55,5.50
2013,03,30,06,56,5.50
2013,03,30,06,57,5.50
2013,03,30,06,58,5.50
2013,03,30,06,59,5.50
2013,03,30,07,00,5.50
2013,03,30,07,01,5.50
2013,03,30,07,02,5.50
2013,03,30,07,03,5.40
2013,03,30,07,04,5.40
2013,03,30,07,05,5.40
2013,03,30,07,06,5.40
2013,03,30,07,07,5.40
2013,03,30,07,08,5.40
2013,03,30,07,09,5.30
2013,03,30,07,10,5.30
2013,03,30,07,11,5.30
2013,03,30,07,12,5.30
2013,03,30,07,13,5.30
2013,03,30,07,14,5.30
2013,03,30,07,15,5.20
2013,03,30,07,16,5.30
2013,03,30,07,17,5.30
2013,03,30,07,18,5.30
2013,03,30,07,19,5.30
2013,03,30,07,20,5.30
2013,03,30,07,21,5.40
2013,03,30,07,22,5.40
2013,03,30,07,23,5.40
2013,03,30,07,24,5.50
2013,03,30,07,25,5.50
2013,03,30,07,26,5.50
2013,03,30,07,27,5.50
2013,03,30,07,28,5.50
2013,03,30,07,29,5.50
2013,03,30,07,30,5.50
2013,03,30,07,31,5.50
2013,03,30,07,32,5.50
2013,03,30,07,33,5.50
2013,03,30,07,34,5.60
2013,03,30,07,35,5.60
2013,03,30,07,36,5.60
2013,03,30,07,37,5.60
2013,03,30,07,38,5.70
2013,03,30,07,39,5.70
2013,03,30,07,40,5.70
2013,03,30,07,41,5.70
2013,03,30,07,42,5.80
2013,03,30,07,43,5.80
2013,03,30,07,44,5.90
2013,03,30,07,45,5.90
2013,03,30,07,46,5.90
2013,03,30,07,47,5.90
2013,03,30,07,48,6.00
2013,03,30,07,49,6.00
2013,03,30,07,50,6.10
2013,03,30,07,51,6.10
2013,03,30,07,52,6.10
2013,03,30,07,53,6.20
2013,03,30,07,54,6.20
2013,03,30,07,55,6.20
2013,03,30,07,56,6.20
2013,03,30,07,57,6.20
2013,03,30,07,58,6.20
2013,03,30,07,59,6.30
2013,03,30,08,00,6.30
2013,03,30,08,01,6.30
2013,03,30,08,02,6.40
2013,03,30,08,03,6.40
2013,03,30,08,04,6.40
2013,03,30,08,05,6.50
2013,03,30,08,06,6.50
2013,03,30,08,07,6.60
2013,03,30,08,08,6.60
2013,03,30,08,09,6.70
2013,03,30,08,10,6.70
2013,03,30,08,11,6.80
2013,03,30,08,12,6.80
2013,03,30,08,13,6.80
2013,03,30,08,14,6.80
2013,03,30,08,15,6.90
2013,03,30,08,16,6.90
2013,03,30,08,17,7.00
2013,03,30,08,18,7.00
2013,03,30,08,19,7.00
2013,03,30,08,20,7.00
2013,03,30,08,21,7.10
2013,03,30,08,22,7.10
2013,03,30,08,23,7.10
2013,03,30,08,24,7.20
2013,03,30,08,25,7.20
2013,03,30,08,26,7.20
2013,03,30,08,27,7.30
2013,03,30,08,28,7.30
2013,03,30,08,29,7.40
2013,03,30,08,30,7.40
2013,03,30,08,31,7.50
2013,03,30,08,32,7.50
2013,03,30,08,33,7.60
2013,03,30,08,34,7.60
2013,03,30,08,35,7.70
2013,03,30,08,36,7.80
2013,03,30,08,37,7.80
2013,03,30,08,38,7.90
2013,03,30,08,39,8.00
2013,03,30,08,40,8.00
2013,03,30,08,41,8.10
2013,03,30,08,42,8.20
2013,03,30,08,43,8.40
2013,03,30,08,44,8.50
2013,03,30,08,45,8.60
2013,03,30,08,46,8.70
2013,03,30,08,47,8.80
2013,03,30,08,48,8.80
2013,03,30,08,49,8.90
2013,03,30,08,50,9.00
2013,03,30,08,51,9.10
2013,03,30,08,52,9.10
2013,03,30,08,53,9.20
2013,03,30,08,54,9.20
2013,03,30,08,55,9.20
2013,03,30,08,56,9.30
2013,03,30,08,57,9.30
2013,03,30,08,58,9.40
2013,03,30,08,59,9.40
2013,03,30,09,00,9.40
2013,03,30,09,01,9.50
2013,03,30,09,02,9.50
2013,03,30,09,03,9.60
2013,03,30,09,04,9.60
2013,03,30,09,05,9.60
2013,03,30,09,06,9.60
2013,03,30,09,07,9.60
2013,03,30,09,08,9.60
2013,03,30,09,09,9.70
2013,03,30,09,10,9.70
2013,03,30,09,11,9.80
2013,03,30,09,12,9.80
2013,03,30,09,13,9.80
2013,03,30,09,14,9.90
2013,03,30,09,15,9.90
2013,03,30,09,16,10.00
2013,03,30,09,17,10.00
2013,03,30,09,18,10.10
2013,03,30,09,19,10.20
2013,03,30,09,20,10.30
2013,03,30,09,21,10.40
2013,03,30,09,22,10.40
2013,03,30,09,23,10.50
2013,03,30,09,24,10.60
2013,03,30,09,25,10.70
2013,03,30,09,26,10.70
2013,03,30,09,27,10.80
2013,03,30,09,28,10.90
2013,03,30,09,29,10.90
2013,03,30,09,30,11.10
2013,03,30,09,31,11.20
2013,03,30,09,32,11.20
2013,03,30,09,33,11.30
2013,03,30,09,34,11.30
2013,03,30,09,35,11.30
2013,03,30,09,36,11.30
2013,03,30,09,37,11.40
2013,03,30,09,38,11.40
2013,03,30,09,39,11.40
2013,03,30,09,40,11.50
2013,03,30,09,41,11.50
2013,03,30,09,42,11.50
2013,03,30,09,43,11.60
2013,03,30,09,44,11.60
2013,03,30,09,45,11.70
2013,03,30,09,46,11.70
2013,03,30,09,47,11.70
2013,03,30,09,48,11.80
2013,03,30,09,49,11.80
2013,03,30,09,50,11.80
2013,03,30,09,51,11.80
2013,03,30,09,52,11.90
2013,03,30,09,53,11.90
2013,03,30,09,54,11.90
2013,03,30,09,55,12.00
2013,03,30,09,56,12.00
2013,03,30,09,57,12.00
2013,03,30,09,58,12.10
2013,03,30,09,59,12.10
2013,03,30,10,00,12.20
2013,03,30,10,01,12.20
2013,03,30,10,02,12.30
2013,03,30,10,03,12.30
2013,03,30,10,04,12.30
2013,03,30,10,05,12.30
2013,03,30,10,06,12.30
2013,03,30,10,07,12.30
2013,03,30,10,08,12.30
2013,03,30,10,09,12.30
2013,03,30,10,10,12.30
2013,03,30,10,11,12.30
2013,03,30,10,12,12.30
2013,03,30,10,13,12.30
2013,03,30,10,14,12.30
2013,03,30,10,15,12.30
2013,03,30,10,16,12.30
2013,03,30,10,17,12.30
2013,03,30,10,18,12.40
2013,03,30,10,19,12.40
2013,03,30,10,20,12.40
2013,03,30,10,21,12.40
2013,03,30,10,22,12.40
2013,03,30,10,23,12.40
2013,03,30,10,24,12.40
2013,03,30,10,25,12.40
2013,03,30,10,26,12.30
2013,03,30,10,27,12.30
2013,03,30,10,28,12.40
2013,03,30,10,29,12.40
2013,03,30,10,30,12.40
2013,03,30,10,31,12.40
2013,03,30,10,32,12.40
2013,03,30,10,33,12.40
2013,03,30,10,34,12.40
2013,03,30,10,35,12.40
2013,03,30,10,36,12.50
2013,03,30,10,37,12.60
2013,03,30,10,38,12.70
2013,03,30,10,39,12.70
2013,03,30,10,40,12.70
2013,03,30,10,41,12.70
2013,03,30,10,42,12.80
2013,03,30,10,43,12.80
2013,03,30,10,44,12.80
2013,03,30,10,45,12.80
2013,03,30,10,46,12.80
2013,03,30,10,47,12.80
2013,03,30,10,48,12.90
2013,03,30,10,49,12.80
2013,03,30,10,50,12.80
2013,03,30,10,51,12.80
2013,03,30,10,52,12.80
2013,03,30,10,53,12.80
2013,03,30,10,54,12.70
2013,03,30,10,55,12.70
2013,03,30,10,56,12.70
2013,03,30,10,57,12.70
2013,03,30,10,58,12.70
2013,03,30,10,59,12.70
2013,03,30,11,00,12.70
2013,03,30,11,01,12.70
2013,03,30,11,02,12.70
2013,03,30,11,03,12.80
2013,03,30,11,04,12.80
2013,03,30,11,05,12.80
2013,03,30,11,06,12.80
2013,03,30,11,07,12.80
2013,03,30,11,08,12.80
2013,03,30,11,09,12.80
2013,03,30,11,10,12.80
2013,03,30,11,11,12.80
2013,03,30,11,12,12.90
2013,03,30,11,13,12.90
2013,03,30,11,14,12.80
2013,03,30,11,15,12.80
2013,03,30,11,16,12.80
2013,03,30,11,17,12.80
2013,03,30,11,18,12.80
2013,03,30,11,19,12.70
2013,03,30,11,20,12.70
2013,03,30,11,21,12.70
2013,03,30,11,22,12.70
2013,03,30,11,23,12.70
2013,03,30,11,24,12.70
2013,03,30,11,25,12.80
2013,03,30,11,26,12.90
2013,03,30,11,27,12.90
2013,03,30,11,28,12.90
2013,03,30,11,29,12.90
2013,03,30,11,30,12.90
2013,03,30,11,31,12.80
2013,03,30,11,32,12.80
2013,03,30,11,33,12.80
2013,03,30,11,34,12.90
2013,03,30,11,35,12.90
2013,03,30,11,36,12.90
2013,03,30,11,37,13.00
2013,03,30,11,38,13.00
2013,03,30,11,39,13.00
2013,03,30,11,40,13.00
2013,03,30,11,41,13.10
2013,03,30,11,42,13.00
2013,03,30,11,43,13.10
2013,03,30,11,44,13.10
2013,03,30,11,45,13.20
2013,03,30,11,46,13.20
2013,03,30,11,47,13.20
2013,03,30,11,48,13.20
2013,03,30,11,49,13.20
2013,03,30,11,50,13.20
2013,03,30,11,51,13.20
2013,03,30,11,52,13.20
2013,03,30,11,53,13.20
2013,03,30,11,54,13.30
2013,03,30,11,55,13.30
2013,03,30,11,56,13.30
2013,03,30,11,57,13.30
2013,03,30,11,58,13.30
2013,03,30,11,59,13.30
2013,03,30,12,00,13.40
2013,03,30,12,01,13.40
2013,03,30,12,02,13.50
2013,03,30,12,03,13.60
2013,03,30,12,04,13.60
2013,03,30,12,05,13.60
2013,03,30,12,06,13.60
2013,03,30,12,07,13.60
2013,03,30,12,08,13.60
2013,03,30,12,09,13.60
2013,03,30,12,10,13.60
2013,03,30,12,11,13.60
2013,03,30,12,12,13.60
2013,03,30,12,13,13.60
2013,03,30,12,14,13.60
2013,03,30,12,15,13.70
2013,03,30,12,16,13.70
2013,03,30,12,17,13.70
2013,03,30,12,18,13.70
2013,03,30,12,19,13.70
2013,03,30,12,20,13.60
2013,03,30,12,21,13.60
2013,03,30,12,22,13.60
2013,03,30,12,23,13.60
2013,03,30,12,24,13.70
2013,03,30,12,25,13.80
2013,03,30,12,26,13.80
2013,03,30,12,27,13.80
2013,03,30,12,28,13.80
2013,03,30,12,29,13.80
2013,03,30,12,30,13.80
2013,03,30,12,31,13.80
2013,03,30,12,32,13.80
2013,03,30,12,33,13.80
2013,03,30,12,34,13.80
2013,03,30,12,35,13.90
2013,03,30,12,36,14.00
2013,03,30,12,37,14.10
2013,03,30,12,38,14.10
2013,03,30,12,39,14.20
2013,03,30,12,40,14.20
2013,03,30,12,41,14.20
2013,03,30,12,42,14.20
2013,03,30,12,43,14.20
2013,03,30,12,44,14.30
2013,03,30,12,45,14.20
2013,03,30,12,46,14.20
2013,03,30,12,47,14.20
2013,03,30,12,48,14.20
2013,03,30,12,49,14.30
2013,03,30,12,50,14.30
2013,03,30,12,51,14.40
2013,03,30,12,52,14.40
2013,03,30,12,53,14.50
2013,03,30,12,54,14.50
2013,03,30,12,55,14.50
2013,03,30,12,56,14.50
2013,03,30,12,57,14.50
2013,03,30,12,58,14.50
2013,03,30,12,59,14.60
2013,03,30,13,00,14.60
2013,03,30,13,01,14.60
2013,03,30,13,02,14.60
2013,03,30,13,03,14.50
2013,03,30,13,04,14.60
2013,03,30,13,05,14.60
2013,03,30,13,06,14.70
2013,03,30,13,07,14.80
2013,03,30,13,08,14.80
2013,03,30,13,09,14.80
2013,03,30,13,10,14.80
2013,03,30,13,11,14.80
2013,03,30,13,12,14.80
2013,03,30,13,13,14.80
2013,03,30,13,14,14.80
2013,03,30,13,15,14.90
2013,03,30,13,16,14.80
2013,03,30,13,17,14.70
2013,03,30,13,18,14.80
2013,03,30,13,19,14.80
2013,03,30,13,20,14.70
2013,03,30,13,21,14.70
2013,03,30,13,22,14.70
2013,03,30,13,23,14.70
2013,03,30,13,24,14.70
2013,03,30,13,25,14.80
2013,03,30,13,26,14.90
2013,03,30,13,27,15.00
2013,03,30,13,28,15.00
2013,03,30,13,29,15.00
2013,03,30,13,30,15.00
2013,03,30,13,31,15.00
2013,03,30,13,32,14.90
2013,03,30,13,33,14.90
2013,03,30,13,34,15.00
2013,03,30,13,35,15.00
2013,03,30,13,36,15.00
2013,03,30,13,37,15.00
2013,03,30,13,38,15.00
2013,03,30,13,39,14.90
2013,03,30,13,40,14.90
2013,03,30,13,41,14.80
2013,03,30,13,42,14.80
2013,03,30,13,43,14.80
2013,03,30,13,44,14.90
2013,03,30,13,45,14.90
2013,03,30,13,46,14.90
2013,03,30,13,47,14.90
2013,03,30,13,48,15.00
2013,03,30,13,49,15.10
2013,03,30,13,50,15.20
2013,03,30,13,51,15.20
2013,03,30,13,52,15.20
2013,03,30,13,53,15.20
2013,03,30,13,54,15.20
2013,03,30,13,55,15.10
2013,03,30,13,56,15.10
2013,03,30,13,57,15.10
2013,03,30,13,58,15.10
2013,03,30,13,59,15.10
2013,03,30,14,00,15.10
2013,03,30,14,01,15.10
2013,03,30,14,02,15.20
2013,03,30,14,03,15.30
2013,03,30,14,04,15.30
2013,03,30,14,05,15.30
2013,03,30,14,06,15.30
2013,03,30,14,07,15.30
2013,03,30,14,08,15.40
2013,03,30,14,09,15.50
2013,03,30,14,10,15.60
2013,03,30,14,11,15.60
2013,03,30,14,12,15.60
2013,03,30,14,13,15.60
2013,03,30,14,14,15.60
2013,03,30,14,15,15.60
2013,03,30,14,16,15.60
2013,03,30,14,17,15.60
2013,03,30,14,18,15.70
2013,03,30,14,19,15.70
2013,03,30,14,20,15.70
2013,03,30,14,21,15.70
2013,03,30,14,22,15.80
2013,03,30,14,23,15.80
2013,03,30,14,24,15.80
2013,03,30,14,25,15.80
2013,03,30,14,26,15.80
2013,03,30,14,27,15.80
2013,03,30,14,28,15.80
2013,03,30,14,29,15.80
2013,03,30,14,30,15.80
2013,03,30,14,31,15.80
2013,03,30,14,32,15.80
2013,03,30,14,33,15.80
2013,03,30,14,34,15.80
2013,03,30,14,35,15.80
2013,03,30,14,36,15.80
2013,03,30,14,37,15.80
2013,03,30,14,38,15.90
2013,03,30,14,39,15.90
2013,03,30,14,40,16.00
2013,03,30,14,41,16.00
2013,03,30,14,42,15.90
2013,03,30,14,43,15.80
2013,03,30,14,44,15.80
2013,03,30,14,45,15.80
2013,03,30,14,46,15.80
2013,03,30,14,47,15.90
2013,03,30,14,48,15.90
2013,03,30,14,49,15.90
2013,03,30,14,50,16.00
2013,03,30,14,51,16.00
2013,03,30,14,52,16.00
2013,03,30,14,53,16.10
2013,03,30,14,54,16.10
2013,03,30,14,55,16.20
2013,03,30,14,56,16.10
2013,03,30,14,57,16.10
2013,03,30,14,58,16.10
2013,03,30,14,59,16.20
2013,03,30,15,00,16.20
2013,03,30,15,01,16.10
2013,03,30,15,02,16.10
2013,03,30,15,03,16.10
2013,03,30,15,04,16.10
2013,03,30,15,05,16.10
2013,03,30,15,06,16.10
2013,03,30,15,07,16.20
2013,03,30,15,08,16.20
2013,03,30,15,09,16.20
2013,03,30,15,10,16.20
2013,03,30,15,11,16.20
2013,03,30,15,12,16.20
2013,03,30,15,13,16.10
2013,03,30,15,14,16.10
2013,03,30,15,15,16.10
2013,03,30,15,16,16.10
2013,03,30,15,17,16.10
2013,03,30,15,18,16.10
2013,03,30,15,19,16.10
2013,03,30,15,20,16.00
2013,03,30,15,21,16.00
2013,03,30,15,22,16.00
2013,03,30,15,23,16.10
2013,03,30,15,24,16.10
2013,03,30,15,25,16.20
2013,03,30,15,26,16.30
2013,03,30,15,27,16.30
2013,03,30,15,28,16.30
2013,03,30,15,29,16.30
2013,03,30,15,30,16.30
2013,03,30,15,31,16.30
2013,03,30,15,32,16.30
2013,03,30,15,33,16.30
2013,03,30,15,34,16.30
2013,03,30,15,35,16.40
2013,03,30,15,36,16.40
2013,03,30,15,37,16.50
2013,03,30,15,38,16.50
2013,03,30,15,39,16.60
2013,03,30,15,40,16.60
2013,03,30,15,41,16.70
2013,03,30,15,42,16.70
2013,03,30,15,43,16.70
2013,03,30,15,44,16.80
2013,03,30,15,45,16.90
2013,03,30,15,46,17.00
2013,03,30,15,47,17.10
2013,03,30,15,48,17.10
2013,03,30,15,49,17.00
2013,03,30,15,50,16.90
2013,03,30,15,51,16.50
2013,03,30,15,52,16.20
2013,03,30,15,53,16.00
2013,03,30,15,54,15.80
2013,03,30,15,55,15.50
2013,03,30,15,56,15.30
2013,03,30,15,57,15.10
2013,03,30,15,58,14.90
2013,03,30,15,59,14.70
2013,03,30,16,00,14.50
2013,03,30,16,01,14.40
2013,03,30,16,02,14.20
2013,03,30,16,03,14.20
2013,03,30,16,04,14.20
2013,03,30,16,05,14.20
2013,03,30,16,06,14.20
2013,03,30,16,07,14.20
2013,03,30,16,08,14.10
2013,03,30,16,09,14.20
2013,03,30,16,10,14.20
2013,03,30,16,11,14.20
2013,03,30,16,12,14.20
2013,03,30,16,13,14.20
2013,03,30,16,14,14.10
2013,03,30,16,15,14.10
2013,03,30,16,16,14.10
2013,03,30,16,17,14.10
2013,03,30,16,18,14.20
2013,03,30,16,19,14.20
2013,03,30,16,20,14.10
2013,03,30,16,21,14.10
2013,03,30,16,22,14.10
2013,03,30,16,23,14.10
2013,03,30,16,24,14.00
2013,03,30,16,25,14.00
2013,03,30,16,26,13.90
2013,03,30,16,27,13.90
2013,03,30,16,28,13.80
2013,03,30,16,29,13.80
2013,03,30,16,30,13.80
2013,03,30,16,31,13.90
2013,03,30,16,32,13.90
2013,03,30,16,33,13.90
2013,03,30,16,34,13.90
2013,03,30,16,35,13.90
2013,03,30,16,36,13.90
2013,03,30,16,37,14.00
2013,03,30,16,38,14.00
2013,03,30,16,39,14.10
2013,03,30,16,40,14.10
2013,03,30,16,41,14.20
2013,03,30,16,42,14.30
2013,03,30,16,43,14.50
2013,03,30,16,44,14.60
2013,03,30,16,45,14.60
2013,03,30,16,46,14.60
2013,03,30,16,47,14.60
2013,03,30,16,48,14.60
2013,03,30,16,49,14.70
2013,03,30,16,50,14.70
2013,03,30,16,51,14.80
2013,03,30,16,52,14.90
2013,03,30,16,53,14.90
2013,03,30,16,54,15.00
2013,03,30,16,55,15.00
2013,03,30,16,56,15.00
2013,03,30,16,57,15.00
2013,03,30,16,58,14.90
2013,03,30,16,59,14.70
2013,03,30,17,00,14.50
2013,03,30,17,01,14.40
2013,03,30,17,02,14.30
2013,03,30,17,03,14.40
2013,03,30,17,04,14.40
2013,03,30,17,05,14.50
2013,03,30,17,06,14.50
2013,03,30,17,07,14.50
2013,03,30,17,08,14.40
2013,03,30,17,09,14.30
2013,03,30,17,10,14.20
2013,03,30,17,11,14.00
2013,03,30,17,12,13.90
2013,03,30,17,13,13.70
2013,03,30,17,14,13.70
2013,03,30,17,15,13.60
2013,03,30,17,16,13.60
2013,03,30,17,17,13.60
2013,03,30,17,18,13.60
2013,03,30,17,19,13.60
2013,03,30,17,20,13.50
2013,03,30,17,21,13.50
2013,03,30,17,22,13.40
2013,03,30,17,23,13.40
2013,03,30,17,24,13.30
2013,03,30,17,25,13.30
2013,03,30,17,26,13.20
2013,03,30,17,27,13.20
2013,03,30,17,28,13.10
2013,03,30,17,29,13.00
2013,03,30,17,30,13.00
2013,03,30,17,31,12.90
2013,03,30,17,32,12.90
2013,03,30,17,33,12.90
2013,03,30,17,34,12.90
2013,03,30,17,35,13.00
2013,03,30,17,36,13.00
2013,03,30,17,37,13.10
2013,03,30,17,38,13.10
2013,03,30,17,39,13.10
2013,03,30,17,40,13.10
2013,03,30,17,41,13.20
2013,03,30,17,42,13.20
2013,03,30,17,43,13.30